Theta_e
308 310 311 310 314 315 313 313 313 316 315 317 315 315 317 317 318 317 317 318 319 320 322 319 318 320 323 325 326 326 328 327 326 326 326 328 326 325 328 327 327 328 328 326 327 322 320 314 316 322 325 325 324 324 323 322 323 323 323 325 326 326 325
311 312 313 313 311 314 312 312 312 314 313 315 316 317 317 318 320 318 316 316 317 317 321 319 319 320 319 319 320 320 324 326 326 327 327 326 327 326 324 324 325 325 326 326 328 326 319 316 315 316 318 323 324 323 322 323 323 323 323 325 326 326 325
313 312 311 310 310 309 311 311 312 311 314 315 314 314 311 316 316 316 315 315 315 317 319 317 318 318 318 318 319 320 321 322 327 328 328 329 329 328 327 325 322 322 322 322 322 323 322 321 316 317 317 318 318 320 324 323 322 323 323 324 325 325 324
311 310 308 309 309 309 310 310 311 312 315 317 317 313 313 315 315 318 314 314 316 317 316 316 316 317 318 318 318 318 318 319 321 326 326 326 327 327 327 325 324 323 320 319 320 321 320 318 317 317 318 319 319 319 321 325 325 324 324 324 325 324 324
311 309 307 307 310 308 310 309 310 311 311 313 313 315 313 314 316 313 315 314 315 314 314 315 316 317 317 317 317 317 317 318 319 322 325 325 326 326 326 326 325 325 323 321 321 321 320 319 318 317 317 320 322 323 325 325 328 326 324 323 325 325 324
310 309 309 307 310 308 308 309 309 308 310 311 310 313 312 313 312 311 312 312 311 312 312 313 313 315 315 314 315 316 316 316 316 317 318 322 325 325 325 327 325 325 325 325 323 322 321 321 319 317 319 322 318 321 326 326 323 328 328 326 324 325 325
310 310 310 310 310 310 309 308 310 307 309 310 311 309 313 311 311 312 311 310 311 311 312 311 312 312 314 314 314 314 314 315 316 315 316 317 321 325 326 325 325 326 327 327 325 323 322 321 320 318 317 319 321 320 323 326 326 324 328 328 326 325 325
311 311 310 311 310 310 310 310 308 309 308 309 308 310 312 310 311 310 311 310 311 310 310 310 312 311 311 313 313 314 314 315 315 315 315 316 317 320 323 325 326 326 326 327 327 325 324 323 322 322 320 316 315 317 318 323 322 323 323 328 328 325 325
313 312 311 311 310 309 309 309 309 308 308 308 309 310 311 310 310 310 311 310 310 310 310 310 309 308 309 309 310 311 311 315 314 314 315 315 315 316 317 321 323 323 324 325 326 326 326 325 324 322 321 319 315 312 314 314 316 320 328 326 329 331 329
311 310 309 308 310 310 309 308 308 309 308 308 310 310 309 309 310 309 309 309 309 309 308 308 308 308 308 308 309 308 309 310 311 311 313 314 314 315 316 317 319 323 324 325 325 325 326 325 325 324 323 321 319 314 312 311 312 314 322 326 322 326 329
310 309 309 309 309 309 308 308 308 308 308 309 309 312 309 308 309 314 308 308 308 308 308 307 308 307 307 306 307 307 309 309 309 310 311 312 313 314 315 315 316 318 322 324 324 325 325 325 325 325 324 323 321 317 315 312 312 316 317 322 325 324 326
309 309 309 309 309 308 308 307 307 307 308 308 308 306 307 307 307 307 307 306 306 306 306 305 306 305 305 304 305 306 307 307 307 307 308 309 311 313 313 314 315 315 318 321 323 324 324 325 325 326 325 324 322 321 318 316 313 317 320 319 322 327 327
309 308 308 309 308 308 308 308 307 307 307 307 306 307 306 306 306 305 305 305 305 305 305 305 304 304 304 303 304 305 305 305 306 305 306 308 309 310 310 310 311 313 315 318 322 324 324 325 326 325 325 324 323 323 322 319 316 315 321 321 321 323 326
308 308 308 308 308 307 308 308 306 306 307 306 306 306 305 304 304 304 304 304 304 303 303 303 303 303 303 303 303 303 303 304 304 304 305 305 306 307 308 308 309 311 312 312 315 320 323 325 325 325 325 325 323 324 322 320 317 317 320 321 321 322 326
308 308 307 307 307 307 307 306 306 306 304 305 305 304 304 303 304 304 303 302 302 302 303 302 302 302 303 302 301 304 304 303 303 303 304 304 304 306 305 305 306 307 310 310 312 314 319 322 324 324 324 324 323 323 324 321 320 318 317 317 320 322 323
308 307 307 307 307 307 307 306 307 305 304 304 305 304 304 303 304 303 302 302 301 301 302 302 302 302 302 301 301 302 303 302 302 303 303 304 304 304 303 304 304 305 307 308 309 311 313 316 321 321 322 325 324 324 323 322 320 317 317 318 320 320 320
307 307 307 306 306 306 306 306 307 305 305 305 305 305 304 303 303 302 302 301 301 301 301 301 301 302 302 301 301 302 302 302 302 302 303 303 304 304 303 303 303 304 305 305 306 308 310 313 315 320 320 321 323 323 323 322 322 320 318 317 318 320 320
307 307 306 306 306 306 306 306 306 305 305 304 304 303 304 304 302 302 302 301 300 300 300 301 300 300 301 301 301 302 302 302 303 303 303 304 304 304 304 304 304 304 304 303 304 305 308 309 312 314 318 319 319 320 322 322 321 321 320 318 318 319 320
307 306 306 306 306 306 306 305 305 305 305 304 303 303 302 302 303 301 300 300 299 299 300 300 300 300 300 301 301 301 302 302 303 303 303 303 303 304 304 304 304 304 304 303 303 305 306 307 310 312 313 316 319 319 319 321 321 321 320 320 319 317 317
307 307 307 306 306 306 306 305 305 304 305 303 302 301 301 300 300 301 300 299 299 299 299 300 299 300 300 300 301 301 302 302 302 303 303 303 303 303 303 303 304 304 304 303 303 304 304 305 308 309 312 313 316 319 319 319 319 320 320 319 319 318 317
307 307 307 306 306 306 305 304 304 303 303 301 301 300 300 300 299 300 299 299 300 300 299 299 299 299 300 300 301 301 302 302 302 302 302 303 303 303 303 303 303 304 304 305 304 304 304 304 306 307 310 311 312 315 317 317 317 317 319 319 318 317 317
307 307 307 306 305 304 304 303 302 302 301 300 302 301 301 300 299 298 298 299 299 299 300 300 300 300 299 299 300 301 301 302 302 301 301 302 303 303 303 303 303 303 305 305 303 303 303 303 304 303 304 305 306 307 310 314 316 316 316 315 316 317 315
306 306 306 305 304 303 302 302 301 300 300 300 299 300 299 299 298 298 298 297 297 299 299 300 301 299 298 299 299 300 300 300 300 300 300 300 300 301 301 301 303 304 303 302 301 300 299 299 301 303 304 304 304 304 305 307 312 316 317 316 317 317 315
305 305 304 303 302 302 302 302 300 300 299 299 298 298 299 297 297 297 297 296 296 297 298 299 297 294 294 295 296 297 297 297 297 298 298 299 299 299 300 300 301 302 302 301 302 299 298 297 298 298 298 299 301 302 302 302 304 309 314 316 316 315 314
304 303 303 302 301 301 300 300 299 298 298 298 298 298 297 297 296 296 297 296 295 296 296 298 295 294 294 294 295 296 295 295 295 295 296 296 297 298 299 300 300 301 301 301 301 302 301 299 297 296 296 297 297 297 298 301 303 304 308 312 315 315 314
303 302 302 301 301 300 299 299 297 297 297 297 297 296 295 296 295 295 295 294 294 296 296 296 294 294 294 293 293 294 295 294 294 294 294 295 295 296 296 297 298 300 300 301 303 301 301 301 300 299 298 297 297 297 296 294 296 303 306 307 311 314 315
302 301 300 300 299 298 298 296 296 296 296 296 294 294 294 295 294 294 294 294 295 295 296 296 294 294 294 293 292 293 294 294 294 294 294 294 294 294 295 295 296 296 298 300 300 300 300 300 300 301 302 304 305 304 300 298 295 294 299 305 307 309 313
300 299 298 298 297 296 296 295 296 295 295 294 292 293 293 293 292 294 294 294 294 295 296 295 293 293 293 292 292 292 292 293 293 293 293 294 294 295 295 295 295 295 296 297 299 299 299 299 299 299 300 301 302 303 304 306 308 306 301 301 305 308 310
299 298 298 297 296 296 295 295 295 295 294 292 293 292 292 293 292 291 293 293 293 293 294 293 292 292 292 291 291 293 292 292 292 292 292 293 294 294 295 295 295 295 296 296 296 294 296 298 298 298 297 298 298 300 301 301 301 302 306 308 306 306 309
298 297 297 296 295 295 295 295 294 293 292 291 291 292 292 292 292 291 292 292 292 292 292 293 292 292 291 291 291 292 291 291 292 292 292 293 294 294 295 295 294 295 295 296 295 293 293 294 296 296 296 296 297 297 298 301 300 299 299 298 299 300 300
298 297 296 296 294 294 294 292 292 292 292 290 290 291 291 290 290 291 291 292 292 292 292 293 292 291 291 291 292 291 291 291 290 290 291 292 293 293 294 296 297 295 295 295 294 293 292 294 295 296 296 296 295 295 297 299 302 304 302 301 298 297 298
297 296 295 295 294 293 292 292 292 292 291 290 291 290 291 289 289 290 291 292 296 294 292 292 292 291 291 291 292 291 290 290 289 290 290 290 291 292 292 294 295 295 295 295 293 292 292 294 295 296 296 296 295 294 296 297 300 302 306 307 308 306 302
295 296 295 294 294 293 292 291 291 290 289 289 290 289 290 289 288 289 290 291 292 292 291 291 292 291 291 291 291 291 291 290 289 289 290 290 290 291 292 292 294 292 291 291 291 291 292 292 294 296 296 295 294 294 296 298 301 304 304 305 307 309 308
295 294 294 293 292 292 292 291 291 290 289 288 288 288 288 288 288 289 290 290 290 291 292 291 291 291 291 291 291 291 290 290 290 290 289 289 290 290 290 291 293 293 291 291 291 291 291 291 292 295 295 295 295 296 296 297 298 296 301 301 303 306 308
295 296 294 294 292 291 291 291 291 289 288 287 287 287 287 287 288 288 289 289 290 290 291 293 291 291 291 291 291 290 290 290 290 289 289 289 289 289 290 291 292 293 292 291 291 291 291 291 291 294 295 293 293 292 294 296 296 298 299 299 301 302 305
295 297 295 294 292 292 291 291 290 289 288 286 287 286 285 286 286 287 287 288 289 289 290 291 292 291 290 290 290 290 289 289 289 289 288 288 288 289 290 291 292 292 291 291 291 291 291 291 291 293 292 292 292 291 292 294 294 295 296 297 298 300 302
295 294 294 294 293 291 290 290 289 290 287 286 286 284 284 286 285 286 286 287 288 288 289 289 290 290 290 289 289 289 289 288 289 289 289 289 289 289 290 290 291 290 290 291 291 291 291 291 292 291 291 291 291 291 293 293 293 294 293 295 296 299 301
Wind_Speed
7 6 5 4 4 4 5 3 3 2 4 3 3 1 1 0 1 2 3 4 4 5 5 6 5 5 5 4 5 3 3 3 4 6 7 5 6 5 5 6 5 3 4 3 3 4 2 1 5 3 3 5 6 8 9 9 9 9 8 8 8 9 8
7 7 5 4 4 4 4 4 3 2 3 3 4 1 0 0 1 3 3 3 3 3 3 5 5 5 5 5 5 6 4 3 3 4 4 6 5 7 3 5 5 5 4 4 4 5 5 5 8 5 5 4 4 5 7 7 8 8 9 9 9 9 7
6 5 5 5 4 4 4 4 3 3 3 3 3 3 1 1 2 2 3 3 3 3 3 3 4 5 5 5 5 5 5 4 4 4 6 6 6 7 7 6 6 6 5 3 4 5 4 6 7 5 6 3 5 4 4 6 6 7 8 8 8 9 7
6 6 5 5 5 4 5 4 4 4 4 5 4 4 2 1 1 2 2 2 1 1 3 3 4 4 5 4 5 5 6 6 5 4 5 6 6 6 7 6 8 8 8 8 8 8 7 6 5 8 8 8 8 6 4 3 4 5 6 6 9 9 8
7 6 8 7 6 6 5 5 4 4 4 4 4 4 4 3 3 2 1 1 1 2 3 3 3 4 4 4 5 5 6 5 5 5 4 5 6 6 7 6 6 6 6 6 6 6 7 8 8 8 7 5 7 7 4 3 2 3 5 7 8 9 10
6 7 7 6 6 6 6 5 4 4 3 4 5 4 4 4 3 2 2 2 2 2 3 3 4 5 6 6 5 4 5 6 5 5 6 5 5 6 7 7 8 8 8 6 5 5 6 6 6 8 9 6 7 5 5 3 4 3 5 5 5 7 8
5 6 5 7 6 7 6 5 5 6 6 4 4 4 5 4 3 3 3 1 1 2 3 3 4 4 4 5 6 6 6 6 6 6 6 6 5 6 6 5 5 7 7 7 7 6 6 6 6 9 9 7 6 9 4 4 3 3 4 5 5 5 8
6 5 5 6 7 6 5 5 5 4 5 3 5 4 4 4 4 3 2 1 1 2 2 3 3 3 4 4 4 5 6 5 6 6 7 7 7 6 5 6 7 7 7 7 7 8 7 8 8 8 8 9 7 6 6 4 3 7 7 3 5 4 5
5 4 4 4 5 5 5 6 5 4 3 3 3 3 3 4 4 3 2 1 0 0 0 1 2 3 4 4 5 4 6 5 7 8 7 7 7 6 6 6 6 7 7 7 8 8 8 8 8 7 7 8 10 10 6 6 4 5 6 5 3 3 3
6 5 5 4 5 4 5 4 4 3 3 2 3 3 3 4 3 3 2 1 0 2 3 4 3 3 3 3 4 4 5 5 6 7 7 7 7 7 6 6 6 6 7 8 7 7 9 8 8 8 8 9 8 9 9 7 7 6 3 6 5 4 7
7 6 6 5 5 5 4 4 3 2 2 2 2 2 3 3 1 1 1 1 1 1 1 1 1 1 2 3 3 4 4 4 6 6 6 7 8 7 7 7 6 7 6 7 8 8 9 9 9 9 9 8 7 10 8 10 9 6 4 3 6 3 3
6 6 5 6 5 6 5 4 3 3 1 2 3 2 2 1 1 0 1 0 0 0 1 2 2 2 2 3 3 4 4 4 5 5 6 7 7 7 8 8 8 7 7 8 8 9 9 9 9 9 10 9 9 9 10 9 9 7 5 6 6 4 3
6 6 5 7 6 6 5 4 4 4 4 3 2 2 1 0 1 0 0 0 0 0 1 1 1 2 3 3 3 4 3 4 5 6 6 6 7 8 9 9 9 8 7 8 8 8 8 9 9 9 9 10 10 11 10 10 11 13 6 6 6 7 6
7 6 5 6 6 5 5 5 4 4 3 2 2 1 2 2 1 1 2 2 1 1 1 2 2 2 2 3 3 3 3 4 5 6 5 7 7 8 9 10 10 9 8 9 8 8 9 10 10 10 10 10 10 9 10 10 12 12 8 3 5 6 6
7 6 6 6 6 5 5 4 4 4 4 3 3 2 3 2 2 2 3 3 3 3 3 4 4 4 4 3 3 3 3 3 5 7 7 8 7 7 8 10 11 11 10 10 9 10 8 8 10 10 10 10 10 9 9 9 10 10 13 3 6 3 5
7 7 7 6 6 5 5 4 4 4 4 4 3 3 4 3 3 3 3 3 3 3 4 4 4 3 3 2 3 3 3 3 5 7 8 8 8 7 8 9 11 11 9 11 11 9 10 10 8 9 11 10 11 11 10 10 9 10 11 10 7 7 6
8 7 7 6 6 5 5 4 4 4 4 4 4 4 4 4 3 2 2 2 2 3 2 1 2 1 2 3 3 4 4 4 5 7 8 9 9 8 8 9 10 10 11 12 12 11 10 9 10 8 9 10 10 11 10 10 11 10 9 11 7 9 7
8 7 7 6 7 5 5 5 4 5 4 4 4 3 2 1 1 1 1 2 2 1 1 1 2 3 3 4 4 5 5 6 6 8 9 9 10 10 10 10 10 9 9 12 12 12 11 12 11 10 8 8 8 10 9 9 9 9 10 12 9 6 7
9 8 7 6 7 6 6 4 4 4 4 4 3 2 2 0 0 1 1 1 1 2 2 2 3 3 3 4 5 6 7 7 8 8 9 10 9 9 9 9 10 10 10 10 11 12 12 13 12 11 11 9 7 6 8 9 9 10 11 12 11 7 5
9 8 7 7 6 5 5 5 4 4 4 4 3 1 1 1 1 1 3 3 4 4 4 4 4 5 5 6 6 7 8 9 9 9 9 10 10 9 9 10 10 10 11 10 11 12 12 13 12 13 11 11 9 7 7 7 8 10 11 11 10 9 7
8 8 7 6 6 5 5 4 4 4 3 3 3 2 0 0 2 1 1 1 2 2 3 4 4 4 5 5 6 7 9 9 9 9 10 10 10 11 11 11 11 11 11 10 9 10 11 12 11 11 10 9 9 9 8 8 9 9 10 10 10 9 8
7 7 7 7 6 5 5 4 4 3 3 3 2 0 0 0 1 2 3 2 3 2 3 4 4 4 5 6 6 8 8 9 9 9 9 9 9 9 10 10 11 11 13 15 16 15 15 14 11 13 13 11 12 11 10 8 7 7 8 9 9 8 6
8 7 7 7 6 5 4 4 4 4 3 2 2 1 1 2 3 3 2 2 2 2 3 3 5 10 9 6 6 7 8 9 10 10 11 12 12 12 13 12 12 16 16 16 17 18 17 18 19 16 14 12 12 11 10 10 10 8 9 10 10 9 10
8 7 7 6 5 5 4 4 4 4 3 3 2 3 4 3 1 1 1 1 1 2 3 3 8 9 10 11 7 7 7 8 9 10 11 12 12 12 12 12 13 15 17 18 16 16 16 20 20 20 20 19 16 13 12 13 12 11 10 10 8 8 9
8 7 6 6 5 5 4 4 4 4 4 3 3 3 3 2 1 1 0 1 2 4 4 7 11 11 11 12 11 9 7 8 8 9 9 11 12 12 12 12 11 10 11 13 13 14 16 16 15 16 19 21 22 23 19 16 14 12 12 10 10 9 7
7 6 6 5 5 5 5 4 4 4 3 4 2 1 2 1 1 1 2 3 4 4 5 8 12 13 12 12 13 11 8 9 10 10 10 11 12 12 12 13 13 11 11 15 14 13 12 14 18 20 17 19 22 23 21 20 21 18 13 13 12 11 9
7 6 5 5 5 4 4 4 3 3 2 1 2 2 1 1 1 3 3 4 4 4 6 9 12 13 12 13 13 11 8 9 10 11 11 12 12 13 13 13 14 14 12 12 12 13 13 13 13 13 14 13 12 16 19 20 19 22 21 15 15 15 11
7 6 5 5 4 4 4 3 2 2 2 3 3 1 1 1 2 3 4 4 5 6 6 10 12 12 12 13 13 10 7 8 10 11 11 11 12 13 14 13 14 14 14 13 12 12 13 12 11 11 13 15 14 11 10 10 10 9 11 13 15 15 14
6 5 5 4 4 4 4 4 4 1 2 2 1 1 1 1 2 4 4 5 5 6 6 9 11 10 11 11 12 8 8 9 10 11 12 12 13 13 13 13 13 13 14 14 16 18 19 16 15 15 15 14 14 14 14 14 15 15 14 11 12 14 14
6 5 5 4 4 4 3 1 2 3 4 3 1 1 1 2 3 4 4 4 5 6 6 8 11 11 11 13 10 8 8 9 10 12 12 12 13 13 13 13 13 14 14 14 15 17 18 17 16 17 16 16 14 15 16 13 15 19 19 20 21 20 20
6 5 5 4 4 4 4 3 4 3 5 2 2 1 2 2 3 3 4 6 6 9 8 9 11 11 12 13 12 10 9 9 11 11 13 13 12 13 15 23 23 17 16 16 15 16 16 15 15 16 16 16 16 16 16 11 9 10 16 17 18 20 21
5 5 5 5 5 5 4 4 4 4 4 2 1 0 1 2 3 4 4 5 9 11 9 10 12 13 14 15 13 9 9 9 12 12 12 14 13 13 14 14 23 21 19 18 20 18 17 15 15 15 15 14 16 17 15 9 11 12 11 12 12 10 11
5 6 6 5 5 4 3 2 5 4 3 2 0 1 1 1 3 4 4 5 7 8 10 10 11 15 14 15 15 11 9 11 12 14 14 14 15 14 14 14 15 18 20 21 22 22 20 19 16 14 13 14 16 19 11 9 11 8 8 9 12 12 13
7 6 5 5 4 3 4 3 6 4 4 3 2 0 0 1 3 6 6 6 7 7 8 11 12 16 16 17 17 15 11 12 13 14 14 15 14 14 14 13 13 17 20 20 20 22 22 22 21 17 16 17 17 14 9 9 11 12 12 11 11 12 12
6 6 5 4 4 4 3 5 6 5 5 4 2 0 1 2 4 6 6 6 6 8 9 13 12 14 16 17 16 17 13 13 14 15 16 15 15 14 14 14 13 15 19 20 20 20 21 21 23 17 18 21 21 19 16 13 10 10 11 11 10 11 10
6 4 4 5 5 6 4 6 5 5 5 4 2 2 3 3 4 6 6 6 7 8 9 9 14 13 15 17 18 19 20 18 19 18 15 16 15 15 14 14 14 18 19 19 20 21 20 21 19 18 22 21 22 23 19 12 11 11 11 12 11 11 10
4 5 5 6 7 5 5 6 5 6 5 4 3 2 3 3 4 6 8 8 8 8 8 8 11 15 15 18 19 20 20 21 21 15 15 15 15 15 15 14 14 18 19 20 21 20 20 20 16 20 20 22 22 20 14 12 11 11 11 12 12 11 10
Wind_Direction
162 165 160 146 136 136 124 155 165 147 126 163 217 244 121 98 108 30 36 26 22 357 358 356 349 339 338 335 330 307 265 212 194 219 245 239 221 237 208 227 229 213 193 197 177 166 161 283 300 304 253 233 230 223 209 206 204 201 198 207 209 203 189
157 161 157 145 142 139 123 131 117 152 139 130 123 91 326 50 78 91 69 57 42 18 13 349 343 340 332 329 332 333 314 274 226 242 247 248 235 243 190 231 218 220 219 214 183 168 199 217 256 250 282 280 239 241 229 214 205 203 200 203 208 206 195
157 156 143 151 155 146 150 168 170 182 179 161 148 130 88 48 76 73 70 55 35 4 357 339 326 331 331 329 332 334 322 301 267 236 235 248 247 243 223 223 221 229 223 207 218 201 216 218 239 226 230 275 283 266 229 234 233 218 208 203 204 207 201
169 150 146 157 162 149 155 178 180 200 164 168 161 151 150 149 105 91 82 55 35 1 329 316 308 312 321 338 334 337 334 327 313 264 250 242 239 253 248 219 221 219 214 210 211 205 204 212 225 250 252 247 253 277 277 236 246 247 225 208 204 205 199
167 157 164 171 171 171 171 180 193 156 161 160 142 154 176 150 109 80 66 50 353 331 310 308 311 319 320 328 330 326 317 315 318 315 270 252 240 238 244 252 251 235 228 223 220 191 197 220 216 235 233 234 251 241 262 310 279 260 251 228 219 207 199
166 163 165 172 175 168 166 171 167 176 188 157 178 130 150 137 125 91 72 52 18 354 351 355 340 338 333 327 317 310 308 310 311 314 311 284 258 236 238 233 232 247 246 234 225 202 204 212 211 238 246 225 242 252 241 199 247 245 224 247 237 223 210
169 166 164 171 175 168 171 178 173 178 171 176 169 159 157 130 114 124 113 67 28 4 351 344 339 332 333 324 316 309 296 292 306 308 303 298 280 256 248 239 240 249 250 245 233 215 212 204 219 227 247 243 223 242 224 218 229 214 275 235 230 225 221
170 168 176 166 168 163 177 173 178 164 151 185 167 190 154 128 135 112 101 85 350 313 324 348 343 348 343 341 330 319 312 309 305 305 299 300 299 288 256 240 246 237 240 250 252 241 223 222 223 226 225 242 253 245 240 218 211 209 227 249 217 215 227
166 164 169 153 173 160 164 155 172 162 162 146 149 125 136 132 132 139 137 149 245 24 20 334 335 331 325 320 315 320 321 324 321 313 302 300 299 293 284 265 238 240 237 236 231 243 242 229 229 223 212 222 234 253 245 253 235 249 209 227 267 207 225
168 170 178 169 173 163 146 142 143 169 146 128 120 126 134 128 133 133 138 160 203 259 277 274 265 272 287 304 304 312 312 318 317 312 312 307 303 303 298 290 269 246 235 236 235 226 239 248 239 231 220 223 212 233 250 252 248 259 232 195 216 238 201
172 176 174 169 164 142 133 127 117 101 145 164 132 108 112 117 124 144 160 215 264 297 271 288 311 312 335 325 317 308 300 303 302 306 307 311 306 305 298 294 288 281 259 237 233 228 228 228 231 233 234 232 221 232 234 245 257 222 250 222 209 222 223
170 170 167 161 155 150 148 141 146 184 137 106 105 102 104 103 114 107 123 151 156 12 6 348 360 353 350 333 317 314 312 309 303 300 306 311 311 310 305 299 299 289 282 263 243 232 231 234 233 232 235 235 232 229 236 242 256 246 197 234 229 221 192
168 165 160 154 154 153 156 156 167 150 164 138 122 128 132 144 146 181 13 84 131 354 333 303 311 307 313 297 294 303 301 313 306 301 304 306 306 306 305 303 301 305 311 312 294 266 242 229 230 233 234 234 235 229 229 236 238 254 214 214 211 222 200
171 163 156 154 153 160 155 162 164 172 146 154 151 158 178 188 207 204 224 238 227 218 248 278 276 266 269 277 281 279 296 304 305 303 303 304 306 305 306 305 303 301 303 297 296 291 274 252 231 230 231 234 237 230 226 230 237 249 252 189 205 209 200
165 162 160 156 158 159 164 162 165 145 152 188 155 184 192 206 200 217 226 231 225 225 223 238 254 244 241 242 259 262 282 292 296 295 293 287 287 294 301 304 302 304 305 299 296 294 288 271 260 241 229 228 233 231 225 225 233 236 253 199 228 231 231
164 166 161 167 161 165 167 168 161 159 174 192 195 192 216 219 227 228 223 220 227 237 235 235 244 248 253 261 271 277 269 275 277 279 279 278 278 280 285 289 293 300 302 302 299 294 293 289 263 253 249 236 230 229 227 216 224 238 244 244 197 214 199
165 164 166 168 167 168 166 173 170 170 186 188 203 222 203 206 203 205 213 253 253 259 290 326 347 326 282 274 274 276 279 274 271 273 276 278 279 277 271 276 281 289 296 296 297 297 294 290 289 266 247 250 245 234 220 220 220 228 234 250 208 208 203
166 166 164 162 169 169 173 179 177 184 186 197 207 203 231 200 214 264 277 287 306 334 330 348 349 327 315 299 292 288 281 273 267 268 270 274 276 275 275 272 274 279 285 289 291 291 291 292 288 287 274 253 241 241 237 222 223 221 235 241 241 212 191
167 164 161 161 166 172 178 176 183 192 180 191 198 195 197 137 122 314 318 313 324 313 309 304 290 277 280 288 289 284 278 275 273 270 271 271 272 270 269 270 272 270 271 274 282 287 290 291 292 287 284 279 263 245 250 243 222 226 228 237 240 230 201
162 163 160 164 164 171 176 180 177 189 187 184 180 136 98 71 350 326 289 293 293 287 282 270 266 267 267 262 261 266 270 270 268 267 265 266 265 266 267 269 268 265 262 261 266 275 285 287 287 287 287 284 281 275 253 253 262 239 226 233 242 232 222
156 158 161 160 165 169 170 173 184 184 156 134 123 121 113 319 288 346 330 328 295 303 300 296 285 281 275 273 270 267 268 267 267 265 264 261 261 262 261 261 261 262 261 258 256 266 271 279 285 288 293 309 310 300 276 250 237 246 249 238 232 234 228
149 154 158 161 160 164 165 172 169 152 134 133 127 137 152 171 261 283 285 295 307 311 308 294 290 286 287 283 277 280 280 277 275 274 271 267 265 264 264 261 261 259 260 263 260 256 259 262 273 281 283 287 289 294 302 299 271 247 247 246 245 242 231
150 150 151 154 156 154 161 168 162 156 156 156 157 154 183 233 242 245 254 278 285 297 293 291 290 293 297 302 304 303 299 295 290 285 281 277 272 269 270 274 275 276 273 267 263 260 257 257 259 261 269 276 277 283 282 288 283 268 249 243 238 230 223
146 146 146 142 143 150 170 174 172 172 163 158 172 200 222 238 222 215 231 242 292 291 281 281 287 291 295 296 294 291 291 291 293 291 289 285 281 276 270 265 265 266 268 271 272 267 261 257 256 258 261 261 259 257 274 270 267 273 269 251 245 237 244
135 137 136 143 154 171 175 167 170 167 167 185 223 230 215 192 207 233 217 280 276 270 268 264 268 271 274 278 281 283 282 284 283 282 282 283 284 284 280 275 268 265 263 263 267 271 273 269 262 258 259 263 267 260 241 240 256 261 256 262 250 241 220
134 139 149 160 170 174 167 165 160 163 189 214 209 172 167 159 227 254 257 264 264 263 265 259 258 261 262 264 267 271 277 278 279 278 277 275 277 279 282 283 281 273 270 266 265 265 265 269 271 271 264 259 259 260 259 243 232 237 249 249 259 253 225
137 150 155 160 159 154 150 165 180 179 194 169 127 147 175 217 242 252 261 259 260 263 264 264 262 261 262 263 265 267 273 277 278 278 278 276 275 275 273 274 276 276 275 272 265 264 263 265 269 272 275 273 265 258 253 248 239 231 230 236 241 247 242
136 143 148 154 148 147 151 160 160 210 212 152 156 179 210 267 277 266 272 275 275 270 265 268 270 272 273 275 278 280 274 275 276 277 274 273 270 269 270 269 267 267 268 266 266 268 269 266 265 266 267 267 273 285 290 288 272 245 223 226 234 238 241
137 142 154 143 145 152 156 170 200 242 89 85 83 83 352 254 266 283 278 284 288 286 285 282 282 281 279 277 276 276 276 274 277 276 275 272 270 267 266 264 264 262 258 256 255 256 261 267 268 265 261 264 272 273 272 267 274 283 272 243 224 227 231
140 156 149 140 151 166 177 118 81 94 89 100 89 38 303 286 295 301 301 297 293 289 286 280 282 286 289 289 290 284 283 283 281 283 280 280 275 271 264 259 259 264 263 259 254 248 249 248 257 258 260 261 262 268 268 272 280 281 281 275 260 240 228
156 158 143 142 135 124 120 115 106 113 119 110 40 319 309 325 303 292 299 305 302 303 298 291 291 291 290 290 287 287 284 283 282 282 284 279 279 276 272 268 268 266 264 262 261 249 243 242 251 253 256 257 257 260 263 266 274 274 279 279 273 259 244
120 116 113 125 127 114 116 121 135 119 119 112 114 248 295 304 300 316 314 302 303 303 298 295 292 292 292 291 291 286 285 284 286 285 286 284 279 278 275 267 265 262 260 262 260 255 247 241 249 250 252 255 254 255 256 262 266 276 284 289 282 272 258
124 113 107 102 103 132 150 114 120 126 137 142 173 262 273 305 311 290 280 286 291 290 293 294 293 291 290 289 289 290 287 289 288 289 285 284 286 281 278 277 270 262 256 254 252 251 248 242 247 251 252 251 251 253 257 263 260 268 292 294 292 279 257
111 118 130 145 154 159 161 148 129 144 166 178 151 174 258 286 298 287 284 281 282 286 289 295 295 291 290 291 290 291 289 286 288 286 287 284 282 284 282 276 273 266 261 254 247 245 242 240 238 243 245 249 247 258 266 259 266 283 286 291 295 291 268
137 143 152 149 161 195 193 136 159 165 171 164 155 192 242 272 274 278 278 278 282 288 292 294 295 293 289 289 288 288 289 286 285 287 284 282 280 278 276 276 274 268 261 254 249 243 240 237 236 238 242 245 253 256 253 252 257 260 267 276 284 287 270
149 148 168 173 170 205 174 161 177 171 164 161 167 213 249 271 285 283 287 285 286 288 291 293 290 292 291 289 288 286 283 282 281 281 279 279 277 275 274 270 269 268 266 261 253 246 240 237 236 238 241 243 245 246 247 250 249 250 256 263 270 276 271
150 168 174 179 189 187 171 178 175 177 165 165 185 227 275 291 292 291 296 298 293 287 287 287 287 288 289 286 285 283 281 279 278 276 276 277 278 275 275 270 267 263 260 258 254 248 244 240 241 242 242 243 245 245 245 244 242 241 248 253 255 256 255